Theta_e
308 308 308 307 306 306 306 303 301 299 299 301 305 306 305 309 309 309 307 311 314 310 309 308 307 305 305 302 301 300 303 303 303 303 304 304 306 305 303 306 306 308 309 308 307
308 308 309 308 304 302 303 300 298 298 299 302 306 306 307 309 308 307 307 309 309 309 309 308 306 303 302 304 304 301 303 304 304 303 304 305 306 306 308 307 309 308 307 306 306
309 308 308 308 304 300 300 300 298 298 299 303 305 306 308 310 307 306 308 308 308 309 310 308 304 304 304 303 304 304 305 306 307 305 304 306 307 307 308 310 308 308 307 306 307
309 308 308 308 306 301 300 299 298 298 299 304 305 306 309 308 312 306 308 308 308 309 307 305 303 304 304 305 304 307 306 307 307 307 306 307 306 307 308 309 306 305 305 306 308
309 308 308 307 306 301 300 298 297 298 300 305 306 308 310 305 306 306 309 308 308 308 306 304 304 303 305 305 305 306 306 306 306 306 306 307 308 308 308 306 304 303 306 308 307
309 308 308 307 306 302 300 298 297 298 301 305 307 307 308 307 306 307 309 308 308 307 306 304 304 303 304 305 305 305 305 307 307 308 307 309 309 308 307 304 303 302 305 306 307
310 309 307 307 306 302 300 299 297 299 302 304 306 306 304 305 305 307 309 309 308 308 306 307 306 305 304 306 303 304 308 307 306 307 309 307 309 309 305 303 302 302 304 306 308
311 309 307 307 306 303 300 298 298 300 303 304 306 305 304 305 305 307 308 309 310 309 308 307 307 304 304 303 303 306 304 309 308 307 307 306 309 308 304 302 302 302 303 305 305
312 309 308 307 306 303 300 297 299 302 302 304 305 304 305 305 305 306 307 308 310 310 309 306 305 306 306 305 303 300 306 304 308 307 308 307 309 307 305 303 302 301 302 302 303
313 310 308 307 306 303 299 298 301 302 302 303 303 303 304 304 305 306 307 309 308 308 307 303 300 302 301 303 301 301 303 305 305 306 307 308 309 306 306 305 302 300 300 300 301
313 310 309 307 306 302 298 300 299 300 301 302 303 304 304 304 305 306 307 308 306 306 308 302 302 302 306 303 299 299 301 302 305 307 307 308 306 307 307 306 302 300 299 300 300
314 311 309 307 306 302 298 297 299 300 302 301 302 302 303 304 305 304 307 307 307 308 304 303 305 304 302 305 306 303 303 301 303 302 305 301 306 305 306 307 303 300 299 298 298
314 311 309 307 305 302 298 299 301 301 301 301 301 303 303 304 305 305 306 306 307 308 304 302 306 304 307 307 308 307 305 305 303 305 306 302 304 304 306 307 304 301 298 297 297
315 312 308 307 302 298 297 298 300 303 306 306 301 302 303 303 304 303 304 305 305 305 305 306 306 308 308 306 305 309 306 306 309 305 304 300 303 301 305 306 307 305 298 296 296
315 312 308 306 299 298 298 299 300 307 322 304 301 301 302 302 302 304 303 304 306 305 301 306 307 308 308 306 304 308 305 308 309 308 304 301 300 302 304 307 307 304 299 297 295
316 311 307 304 299 299 300 300 303 314 317 301 300 303 303 303 304 303 304 301 301 303 303 305 304 304 305 303 303 303 306 305 302 303 303 302 299 299 303 306 308 303 299 297 295
316 311 308 302 301 301 299 302 310 313 302 301 301 303 303 304 304 304 305 304 303 303 301 304 305 303 302 305 305 305 305 305 306 303 304 301 302 300 298 303 307 302 299 297 294
316 310 307 304 300 299 301 305 308 302 301 299 302 302 304 303 304 304 304 303 303 300 298 302 302 304 303 304 305 304 302 304 304 303 301 300 302 302 297 305 305 300 298 297 295
315 308 305 302 300 299 304 304 306 301 302 302 302 303 302 303 303 304 303 303 303 299 303 302 304 302 303 303 303 305 302 300 302 292 301 301 301 299 305 306 303 301 298 297 295
308 304 302 300 299 300 303 307 299 303 300 302 306 302 301 302 304 303 301 300 302 299 300 301 305 302 303 303 303 303 300 305 302 301 303 302 302 303 301 303 304 302 299 297 295
306 304 300 300 299 303 304 299 297 298 300 302 302 299 301 302 302 303 302 301 300 301 301 299 302 301 302 303 303 304 304 300 300 301 305 306 305 297 298 299 302 304 301 298 296
303 303 299 300 300 299 299 291 298 299 298 299 300 300 301 300 301 301 302 300 299 300 303 300 301 301 302 301 301 302 301 300 305 305 299 302 305 298 296 299 298 299 301 299 296
301 296 295 299 304 299 291 290 296 298 299 299 300 300 298 300 301 302 300 299 299 300 302 301 298 297 300 301 299 303 303 300 299 300 302 305 305 297 297 299 298 300 297 299 297
297 298 295 295 296 299 293 296 296 295 299 299 299 299 300 299 296 300 300 299 300 301 303 300 300 303 306 305 301 302 302 300 301 302 302 302 304 302 298 298 298 298 298 298 297
297 299 298 300 301 298 299 297 299 297 296 298 299 301 301 301 301 298 299 300 301 304 300 299 297 297 298 297 300 300 302 301 300 302 307 306 301 302 300 298 297 296 299 298 297
299 298 296 298 301 297 299 299 299 298 298 299 300 300 300 302 303 303 300 301 304 301 300 296 294 290 293 293 296 302 301 302 301 301 298 300 301 298 299 299 298 297 295 299 298
298 297 303 302 301 298 299 300 299 299 297 299 299 301 301 300 298 296 296 297 300 301 298 294 290 295 298 287 293 301 299 301 301 300 299 303 303 300 301 298 297 297 295 297 298
Wind_Speed
8 8 8 8 9 10 11 11 11 10 9 9 9 7 6 6 10 7 8 9 11 12 7 2 5 7 9 5 6 2 4 2 3 4 4 1 1 1 2 2 2 2 4 13 28
8 8 9 9 9 10 11 10 9 10 10 9 8 7 7 4 3 13 9 12 9 8 3 5 3 6 5 4 4 5 4 3 2 4 3 3 1 2 3 4 2 5 11 19 22
10 9 9 10 9 9 10 10 8 9 9 9 7 7 7 3 2 3 13 13 8 3 3 4 6 5 6 5 6 4 4 5 1 2 3 3 1 1 3 2 3 11 18 21 17
11 10 9 9 10 9 9 9 8 8 8 8 7 7 4 2 2 4 13 11 8 4 3 4 5 5 5 5 3 7 3 3 4 3 2 2 2 1 0 3 6 11 15 16 15
13 11 10 10 11 10 9 8 7 8 7 6 7 7 1 4 1 7 10 11 8 6 6 3 4 5 6 6 3 7 3 4 4 4 3 2 0 1 3 5 10 13 11 11 13
15 12 11 12 10 9 9 8 7 6 5 5 7 5 1 2 2 8 8 11 14 12 8 5 5 6 7 4 4 4 6 5 2 1 2 2 1 2 2 6 9 10 11 10 11
15 14 11 10 9 9 9 7 6 5 4 4 5 4 3 2 3 6 6 12 14 10 4 5 6 5 7 6 3 5 5 2 4 3 1 1 0 2 4 7 8 9 10 11 13
16 14 12 10 9 9 8 7 5 3 2 3 3 2 1 1 3 6 5 8 10 12 14 11 14 9 5 6 6 4 4 2 3 5 0 0 3 1 4 7 10 12 12 13 15
18 15 13 12 9 9 8 5 3 2 1 2 1 2 1 1 2 5 5 4 7 8 8 6 6 5 4 5 4 6 2 2 2 2 3 2 3 3 2 5 8 9 10 12 15
20 17 14 12 10 8 5 2 1 1 2 1 1 3 1 2 1 2 3 4 4 3 3 7 5 4 4 4 4 5 4 0 2 3 3 3 4 5 1 3 7 7 8 9 12
22 18 14 13 10 6 1 3 3 2 6 2 1 1 1 0 2 4 3 2 2 7 3 4 6 3 2 1 4 7 5 3 3 1 3 3 5 8 3 2 6 7 8 9 10
24 20 15 12 10 5 3 3 3 3 0 1 1 1 1 1 2 2 3 3 3 4 1 6 3 3 5 3 6 5 4 1 4 2 2 3 7 6 4 3 3 5 6 8 11
27 22 18 14 10 6 6 6 2 4 1 2 2 3 2 1 1 1 2 3 4 4 3 6 4 6 3 2 4 3 5 2 3 3 2 4 6 5 2 2 3 4 2 4 7
31 27 21 17 8 9 4 8 5 5 5 3 3 3 2 3 1 2 2 3 5 5 5 6 4 3 3 2 2 3 2 3 3 3 2 3 3 5 4 7 4 6 4 5 6
34 27 26 24 11 9 7 12 8 2 1 2 3 1 2 4 5 3 3 4 5 5 5 3 6 4 2 2 2 4 4 4 3 3 2 4 3 6 4 5 5 4 3 4 5
35 34 27 20 8 11 16 16 4 5 9 3 3 5 5 1 1 3 3 7 4 5 6 3 1 1 3 2 2 6 4 4 3 2 3 1 3 4 3 4 4 2 1 3 4
41 39 34 19 9 19 23 4 5 4 3 4 5 5 3 5 3 2 5 6 5 6 1 3 0 1 2 5 2 2 4 3 4 3 4 1 1 7 5 6 6 5 5 4 4
41 40 36 22 20 27 21 5 4 4 6 3 3 4 6 6 1 2 5 3 3 3 4 6 3 6 3 2 5 5 4 4 5 3 3 2 5 3 4 2 4 4 3 4 5
44 31 28 23 31 22 9 4 12 8 7 9 4 4 3 3 6 4 7 6 9 9 6 5 1 2 1 1 1 4 3 3 7 3 3 2 6 5 2 6 5 6 4 7 6
33 21 15 32 27 16 8 15 7 5 7 3 8 5 9 8 6 7 9 5 6 8 1 7 5 1 0 1 2 3 4 3 3 2 3 4 4 5 6 8 6 8 9 8 6
20 5 21 34 16 7 10 8 5 5 5 7 6 4 5 8 6 6 9 1 4 5 1 6 4 2 1 6 7 2 2 4 3 3 4 1 5 6 7 8 10 11 10 8 7
6 4 25 37 6 3 7 7 5 5 3 6 4 4 7 6 6 5 10 3 8 8 9 6 6 4 3 1 1 2 4 5 4 5 2 1 5 3 8 8 7 8 9 9 9
7 3 7 15 8 8 1 4 5 5 6 7 5 3 2 6 4 5 5 1 6 7 9 8 1 4 6 4 3 5 5 3 3 3 5 5 5 2 3 4 7 7 7 7 7
4 5 2 2 1 9 8 10 6 2 4 4 4 3 4 3 3 6 4 1 3 3 1 4 3 6 7 5 5 6 7 6 5 4 5 6 4 5 7 9 7 8 7 8 10
4 4 5 9 11 9 17 12 18 7 3 5 2 5 6 4 2 3 2 3 3 3 2 4 5 3 3 3 0 5 7 12 9 5 6 3 9 7 9 11 9 8 6 7 9
7 5 3 3 12 15 20 15 25 12 11 7 5 9 5 4 4 9 8 5 6 3 5 0 3 2 2 4 4 3 5 10 6 3 8 2 8 9 5 2 5 8 8 9 10
3 5 10 14 14 12 17 19 23 19 4 3 9 6 5 1 2 3 4 6 5 10 7 6 7 3 4 2 2 5 11 11 5 6 8 8 10 4 5 6 7 8 9 10 9
Wind_Direction
295 312 321 333 341 345 350 355 354 356 358 360 6 9 10 21 41 73 47 345 326 337 352 22 74 72 62 62 38 112 68 108 153 159 178 289 131 22 289 295 316 225 237 276 309
284 295 310 320 332 339 343 350 353 353 354 355 2 4 2 11 58 56 11 350 347 341 19 55 46 52 55 37 21 62 81 129 196 170 170 161 134 291 13 339 285 288 279 298 316
273 283 295 310 321 332 336 343 349 351 351 352 352 354 356 2 99 348 356 358 4 9 82 80 83 68 65 35 1 31 113 161 180 166 136 127 96 357 329 324 246 302 311 318 332
268 274 283 295 314 321 330 337 344 348 349 350 347 341 346 355 193 342 357 4 28 80 89 93 44 59 70 58 347 96 90 134 154 134 126 151 148 197 276 252 308 290 298 309 329
265 266 274 283 304 311 321 331 342 343 349 350 349 345 15 52 11 351 15 25 43 82 61 88 72 113 103 111 75 77 131 75 106 111 100 136 74 282 260 318 311 314 326 330 325
260 262 268 278 291 303 312 322 335 337 343 350 355 353 9 119 6 359 33 50 63 79 61 49 133 126 88 67 73 118 105 126 84 155 114 81 250 346 321 329 324 341 327 317 325
258 263 259 267 284 296 308 315 324 332 328 348 357 11 54 139 28 22 49 55 61 80 84 65 128 75 134 93 157 121 93 110 21 331 126 171 168 287 318 323 320 338 329 329 340
255 256 256 259 278 294 301 309 312 309 321 323 348 33 106 95 49 41 81 73 78 83 89 89 87 94 75 120 41 67 57 86 329 0 69 134 271 233 343 350 335 347 342 342 343
252 247 250 268 267 289 299 308 308 308 343 322 337 92 199 95 91 40 51 86 88 80 78 81 65 83 55 90 45 13 162 78 300 55 312 11 262 233 17 354 332 340 342 346 338
245 239 242 261 260 281 297 301 138 85 88 81 53 39 86 195 59 50 62 85 103 108 45 41 52 80 48 72 200 188 122 96 210 319 14 341 263 290 331 350 324 330 333 341 341
242 235 233 248 247 265 215 154 41 352 56 133 337 92 112 160 88 55 24 102 90 52 67 18 69 99 128 135 92 108 99 122 256 328 4 323 282 281 283 313 326 329 340 339 335
235 230 225 233 229 222 177 135 161 136 43 101 159 39 265 153 106 11 16 111 69 101 69 30 100 171 128 95 94 79 101 297 295 297 112 335 291 275 262 253 239 303 326 331 330
219 222 214 213 212 203 188 161 139 122 113 216 191 168 203 149 169 161 27 115 99 75 18 123 166 150 109 123 97 58 122 185 187 360 270 319 307 322 312 259 230 259 293 336 326
214 205 201 194 191 173 199 175 194 114 50 232 220 222 145 143 61 311 42 118 48 136 113 101 153 157 128 126 143 112 157 122 82 71 228 359 268 294 309 307 274 281 333 337 336
210 200 196 193 161 169 163 153 143 107 289 120 173 158 147 163 131 360 39 44 125 126 124 168 156 155 161 177 194 159 148 132 99 80 327 2 56 272 9 316 286 286 313 335 331
207 193 187 188 179 158 144 140 136 63 240 173 143 172 120 52 30 141 92 56 130 87 45 106 196 105 144 81 56 131 89 53 62 76 21 291 125 280 220 208 297 290 283 310 324
206 189 186 175 178 153 139 98 67 188 9 222 192 167 163 155 127 152 148 138 153 100 74 24 37 321 137 91 27 99 102 17 2 10 212 148 357 243 226 195 194 256 268 253 284
207 185 180 182 167 155 129 62 148 215 214 150 101 116 181 164 120 131 123 153 246 96 118 148 248 172 176 213 175 180 180 150 196 193 247 94 241 256 234 268 212 209 241 278 286
201 164 169 166 173 172 126 198 202 195 165 147 99 122 214 202 131 156 184 196 199 193 134 138 13 46 65 134 96 177 190 147 106 48 39 228 279 284 240 258 233 240 248 258 270
160 145 166 155 173 156 140 205 208 188 129 176 170 163 182 187 136 175 172 203 193 192 239 192 103 50 314 128 32 189 155 84 8 122 271 272 269 238 215 238 225 243 234 246 247
148 129 158 154 161 131 194 214 209 209 144 157 183 146 183 175 154 190 191 235 146 171 115 149 103 242 116 202 180 149 219 52 114 137 176 232 259 213 188 191 202 217 218 221 239
114 122 166 147 142 174 205 188 171 169 147 209 155 123 174 158 151 198 196 212 158 157 162 201 121 139 193 242 256 223 213 175 128 201 168 162 275 172 194 195 188 213 216 198 194
124 110 184 196 166 191 242 232 184 146 178 183 184 184 184 156 134 187 197 63 147 169 161 183 257 80 353 352 353 227 197 179 106 85 197 138 260 179 266 258 240 218 225 208 207
123 123 162 223 30 162 158 193 187 244 152 165 138 134 128 104 0 166 140 159 148 209 47 83 134 156 179 183 133 188 186 182 151 129 171 224 266 250 220 224 231 219 210 199 197
143 171 192 179 204 185 183 163 187 171 232 187 171 208 146 122 97 159 121 113 60 174 63 134 154 87 74 24 314 170 182 181 195 182 171 239 205 234 222 211 206 208 195 193 204
138 152 146 166 153 173 185 192 191 184 159 214 178 170 137 162 196 187 143 185 181 140 164 212 180 120 357 348 4 232 201 202 224 236 281 251 276 219 185 177 207 218 209 207 207
120 112 136 158 166 165 199 194 201 184 217 184 149 106 132 249 46 357 80 90 137 149 160 144 138 118 237 350 354 328 209 187 193 215 152 196 228 186 190 198 213 206 195 207 217